Date String (YYYY-MM-DD hh:mm:ss) UTC,Instrument flags,absolute air pressure of the measurement (hPa),sample flow rate (lpm),inlet stack bypass flow (lpm),air temperature of the measurement (°C),ambient temperature measured by the external sensor (°C),aerosol sample conditioner tube jacket temperature (°C),OPC LED temperature (°C),internal box temperature (°C),relative humidity of the measurement (%),span deviation,mass concentration of particles derived from Lorenz-Mie calculation of OPC scattering (μg/m³),mass concentration of particles derived from Lorenz-Mie calculation of OPC scattering (μg/m³),mass concentration of particles derived from Lorenz-Mie calculation of OPC scattering (μg/m³)
DateTimeUTC,F1_M11,P_M11,Q1_M11,Q2_M11,T1_M11,T2_M11,T3_M11,T4_M11,T5_M11,U1_M11,ZSPAN_M11,X0_M11,X2_M11,X1_M11
2023-10-09 15:00:00,SystemResetWarning,0830.0,5.00,000.00,028.8,027.4,000.0,037.2,030.5,13.6,0000.0,0008.15,0003.23,0002.55
2023-10-09 15:01:00,SystemResetWarning,0830.0,4.99,000.00,028.8,027.4,000.0,037.2,030.4,13.7,0000.0,0008.12,0003.23,0002.56
2023-10-09 15:02:00,SystemResetWarning,0830.0,5.01,000.00,028.8,027.4,000.0,037.2,030.5,13.6,0000.0,0009.04,0003.25,0002.57
2023-10-09 15:03:00,SystemResetWarning,0830.0,5.01,000.00,028.8,027.4,000.0,037.2,030.5,13.8,0000.0,0009.41,0003.31,0002.57
2023-10-09 15:04:00,SystemResetWarning,0830.0,5.00,000.00,028.8,027.4,000.0,037.2,030.5,14.0,0000.0,0009.90,0003.35,0002.57
2023-10-09 15:05:00,SystemResetWarning,0830.0,5.00,000.00,028.8,027.4,000.0,037.2,030.5,14.0,0000.0,0010.26,0003.35,0002.55
2023-10-09 15:06:00,SystemResetWarning,0830.0,5.00,000.00,028.8,027.4,000.0,037.2,030.5,14.0,0000.0,0010.19,0003.36,0002.56
2023-10-09 15:07:00,SystemResetWarning,0830.0,5.00,000.00,028.8,027.4,000.0,037.2,030.5,13.9,0000.0,0010.18,0003.33,0002.56
2023-10-09 15:08:00,SystemResetWarning,0830.0,5.00,000.00,028.8,027.4,000.0,037.2,030.5,13.6,0000.0,0010.15,0003.32,0002.56
2023-10-09 15:09:00,SystemResetWarning,0829.9,5.00,000.00,028.8,027.5,000.0,037.2,030.5,13.7,0000.0,0010.19,0003.33,0002.57
2023-10-09 15:10:00,SystemResetWarning,0829.9,5.00,000.00,028.9,027.5,000.0,037.2,030.5,13.6,0000.0,0010.07,0003.33,0002.60
2023-10-09 15:11:00,SystemResetWarning,0830.0,5.01,000.00,028.9,027.5,000.0,037.2,030.5,14.0,0000.0,0009.61,0003.34,0002.61
2023-10-09 15:12:00,SystemResetWarning,0830.0,5.01,000.00,028.9,027.5,000.0,037.2,030.5,13.9,0000.0,0009.97,0003.37,0002.62
2023-10-09 15:13:00,SystemResetWarning,0830.0,5.00,000.00,028.9,027.5,000.0,037.3,030.5,13.8,0000.0,0009.23,0003.38,0002.63
2023-10-09 15:14:00,SystemResetWarning,0830.0,5.00,000.00,028.9,027.5,000.0,037.3,030.5,13.9,0000.0,0009.75,0003.44,0002.66
2023-10-09 15:15:00,SystemResetWarning,0830.0,4.99,000.00,028.9,027.5,000.0,037.3,030.5,13.7,0000.0,0011.93,0003.75,0002.74
2023-10-09 15:16:00,SystemResetWarning,0830.0,4.99,000.00,028.9,027.5,000.0,037.3,030.6,13.6,0000.0,0014.14,0004.30,0002.90
2023-10-09 15:17:00,SystemResetWarning,0829.9,5.00,000.00,028.9,027.5,000.0,037.3,030.5,13.7,0000.0,0015.59,0004.66,0003.00
2023-10-09 15:18:00,SystemResetWarning,0829.8,5.01,000.00,028.9,027.5,000.0,037.3,030.5,13.7,0000.0,0016.01,0004.76,0003.03
2023-10-09 15:19:00,SystemResetWarning,0829.8,5.01,000.00,028.9,027.5,000.0,037.3,030.6,13.8,0000.0,0016.08,0004.79,0003.05
2023-10-09 15:20:00,SystemResetWarning,0829.8,5.00,000.00,028.9,027.5,000.0,037.3,030.6,13.5,0000.0,0016.92,0004.80,0003.06
2023-10-09 15:21:00,SystemResetWarning,0829.8,4.99,000.00,028.9,027.5,000.0,037.3,030.6,13.8,0000.0,0018.07,0004.83,0003.06
2023-10-09 15:22:00,SystemResetWarning,0829.8,5.00,000.00,028.9,027.5,000.0,037.3,030.6,13.6,0000.0,0019.15,0004.86,0003.07
2023-10-09 15:23:00,SystemResetWarning,0829.8,5.00,000.00,028.9,027.5,000.0,037.3,030.6,13.4,0000.0,0020.20,0004.89,0003.09
2023-10-09 15:24:00,SystemResetWarning,0829.9,5.01,000.00,028.9,027.5,000.0,037.3,030.6,13.5,0000.0,0022.81,0004.95,0003.11
2023-10-09 15:25:00,SystemResetWarning,0829.9,5.01,000.00,029.0,027.5,000.0,037.3,030.6,13.6,0000.0,0023.30,0004.97,0003.12
2023-10-09 15:26:00,SystemResetWarning,0829.9,5.00,000.00,029.0,027.6,000.0,037.3,030.6,13.7,0000.0,0024.70,0004.94,0003.12
2023-10-09 15:27:00,SystemResetWarning,0830.0,5.00,000.00,029.0,027.6,000.0,037.3,030.6,13.8,0000.0,0023.83,0004.71,0003.09
2023-10-09 15:28:00,SystemResetWarning,0830.0,4.99,000.00,029.0,027.6,000.0,037.4,030.7,13.8,0000.0,0022.21,0004.31,0002.99
2023-10-09 15:29:00,SystemResetWarning,0830.0,5.00,000.00,029.0,027.6,000.0,037.4,030.7,13.9,0000.0,0021.54,0004.17,0002.96
2023-10-09 15:30:00,SystemResetWarning,0830.0,5.00,000.00,029.0,027.7,000.0,037.4,030.7,14.0,0000.0,0021.85,0004.20,0002.98
2023-10-09 15:31:00,SystemResetWarning,0829.9,5.00,000.00,029.0,027.7,000.0,037.4,030.7,14.0,0000.0,0021.40,0004.18,0002.98
2023-10-09 15:32:00,SystemResetWarning,0829.9,5.00,000.00,029.0,027.7,000.0,037.4,030.7,14.3,0000.0,0020.57,0004.16,0002.98
2023-10-09 15:33:00,SystemResetWarning,0829.9,5.00,000.00,029.1,027.7,000.0,037.4,030.7,14.0,0000.0,0019.66,0004.16,0002.98
2023-10-09 15:34:00,SystemResetWarning,0829.9,5.00,000.00,029.1,027.8,000.0,037.4,030.7,13.9,0000.0,0018.70,0004.12,0002.97
2023-10-09 15:35:00,SystemResetWarning,0829.9,5.00,000.00,029.1,027.8,000.0,037.4,030.7,13.5,0000.0,0015.85,0004.05,0002.95
2023-10-09 15:36:00,SystemResetWarning,0829.9,5.00,000.00,029.1,027.8,000.0,037.4,030.7,13.2,0000.0,0014.77,0003.99,0002.93
2023-10-09 15:37:00,SystemResetWarning,0829.9,5.00,000.00,029.1,027.8,000.0,037.5,030.7,13.4,0000.0,0011.44,0003.76,0002.87
2023-10-09 15:38:00,SystemResetWarning,0829.9,5.00,000.00,029.1,027.8,000.0,037.5,030.8,13.6,0000.0,0008.43,0003.47,0002.81
2023-10-09 15:39:00,SystemResetWarning,0829.8,5.00,000.00,029.2,027.9,000.0,037.5,030.8,13.9,0000.0,0009.24,0003.47,0002.80
2023-10-09 15:40:00,SystemResetWarning,0829.8,5.00,000.00,029.2,027.9,000.0,037.5,030.8,13.8,0000.0,0009.87,0003.49,0002.80
2023-10-09 15:41:00,SystemResetWarning,0829.8,5.00,000.00,029.2,027.9,000.0,037.5,030.8,13.8,0000.0,0009.95,0003.45,0002.78
2023-10-09 15:42:00,SystemResetWarning,0829.8,5.00,000.00,029.2,027.9,000.0,037.5,030.8,13.7,0000.0,0009.92,0003.48,0002.77
2023-10-09 15:43:00,SystemResetWarning,0829.8,5.00,000.00,029.2,028.0,000.0,037.6,030.8,14.0,0000.0,0010.18,0003.53,0002.77
2023-10-09 15:44:00,SystemResetWarning,0829.8,5.01,000.00,029.2,028.0,000.0,037.6,030.9,14.1,0000.0,0010.55,0003.55,0002.77
2023-10-09 15:45:00,SystemResetWarning,0829.9,5.00,000.00,029.2,028.0,000.0,037.6,030.9,14.1,0000.0,0011.69,0003.58,0002.77
2023-10-09 15:46:00,SystemResetWarning,0829.9,5.01,000.00,029.3,028.0,000.0,037.6,030.9,14.1,0000.0,0012.47,0003.61,0002.77
2023-10-09 15:47:00,SystemResetWarning,0829.8,5.00,000.00,029.3,028.0,000.0,037.6,030.9,13.9,0000.0,0013.39,0003.69,0002.77
2023-10-09 15:48:00,SystemResetWarning,0829.9,5.00,000.00,029.3,028.0,000.0,037.6,030.9,13.9,0000.0,0015.58,0003.77,0002.77
2023-10-09 15:49:00,SystemResetWarning,0829.8,5.00,000.00,029.3,028.0,000.0,037.6,030.9,13.4,0000.0,0015.94,0003.76,0002.75
2023-10-09 15:50:00,SystemResetWarning,0829.8,5.00,000.00,029.3,028.1,000.0,037.6,030.9,13.2,0000.0,0015.12,0003.80,0002.75
2023-10-09 15:51:00,SystemResetWarning,0829.8,5.00,000.00,029.3,028.1,000.0,037.7,031.0,13.3,0000.0,0014.76,0003.81,0002.76
2023-10-09 15:52:00,SystemResetWarning,0829.8,5.00,000.00,029.3,028.1,000.0,037.7,031.0,13.4,0000.0,0014.56,0003.81,0002.77
2023-10-09 15:53:00,SystemResetWarning,0829.8,5.00,000.00,029.3,028.1,000.0,037.7,031.0,13.7,0000.0,0014.51,0003.78,0002.76
2023-10-09 15:54:00,SystemResetWarning,0829.8,4.99,000.00,029.4,028.1,000.0,037.7,031.0,13.7,0000.0,0014.27,0003.76,0002.76
2023-10-09 15:55:00,SystemResetWarning,0829.8,5.00,000.00,029.4,028.1,000.0,037.7,031.0,13.5,0000.0,0013.79,0003.75,0002.77
2023-10-09 15:56:00,SystemResetWarning,0829.8,5.00,000.00,029.4,028.1,000.0,037.7,031.0,13.8,0000.0,0012.66,0003.73,0002.77
2023-10-09 15:57:00,SystemResetWarning,0829.8,5.00,000.00,029.4,028.2,000.0,037.7,031.0,13.0,0000.0,0011.85,0003.70,0002.75
2023-10-09 15:58:00,SystemResetWarning,0829.8,4.99,000.00,029.4,028.0,000.0,037.7,031.1,13.3,0000.0,0012.04,0003.64,0002.74
2023-10-09 15:59:00,SystemResetWarning,0829.7,5.00,000.00,029.4,026.4,000.0,037.7,031.0,14.1,0000.0,0010.02,0003.55,0002.71
